Providence, RI

10:44 AM EDT on March 26, 2017 (GMT -0400)
Green State

Weather History for KPVD - June, 2013

Change the Weather History Date:

Sunday, June 30, 2013

  Actual Average Record
Temperature  
Mean Temperature 75 °F 72 °F  
Max Temperature 80 °F 81 °F 98 °F (1945)
Min Temperature 70 °F 62 °F 48 °F (1919)
Degree Days  
Heating Degree Days 0 0  
Month to date heating degree days 24 41  
Since 1 June heating degree days 24 43  
Since 1 July heating degree days 5318 5618  
Cooling Degree Days 10 7  
Month to date cooling degree days 164 132  
Year to date cooling degree days 208 158  
Since 1 June cooling degree days 164 132  
Growing Degree Days 24 (Base 50)    
Moisture  
Dew Point 69 °F    
Average Humidity 85    
Maximum Humidity 100    
Minimum Humidity 69    
Precipitation  
Precipitation 0.18 in 0.09 in 2.03 in (1921)
Month to date precipitation 10.08 3.64  
Year to date precipitation 24.68 23.71  
Snow  
Snow 0.00 in 0.00 in 0.00 in (2002)
Month to date snowfall 0.0 0.0  
Since 1 June snowfall 0.0 0.0  
Since 1 July snowfall 46.3 33.8  
Snow Depth 0.00 in    
Sea Level Pressure  
Sea Level Pressure 29.88 in    
Wind  
Wind Speed 9 mph (South)    
Max Wind Speed 17 mph    
Max Gust Speed 22 mph    
Visibility 6 miles    
Events Rain , Thunderstorm    
T = Trace of Precipitation, MM = Missing Value Source: NWS Daily Summary

Daily Weather History Graph

Daily Weather History Graph

Search for Another Location

Airport or City:

Trip Planner

Search our weather history database for the weather conditions in past years. The results will help you decide how hot, cold, wet, or windy it might be!

Date:

Astronomy

Jun. 30, 2013 Rise Set
Actual Time 5:14 AM EDT 8:24 PM EDT
Civil Twilight 4:40 AM EDT 8:58 PM EDT
Nautical Twilight 3:56 AM EDT 9:41 PM EDT
Astronomical Twilight 3:04 AM EDT 10:34 PM EDT
Moon 12:15 AM EDT (6/30) 1:32 PM EDT (6/30)
Length of Visible Light 16h 17m
Length of Day
15h 09m
Last Quarter, 45% of the Moon is Illuminated
Jun 30
Last Quarter
Jul 8
New
Jul 15
First Quarter
Jul 22
Full
Jul 29
Last Quarter

Hourly Weather History & Observations

Time (EDT) Temp. Dew Point Humidity Pressure Visibility Wind Dir Wind Speed Gust Speed Precip Events Conditions
12:51 AM 71.1 °F 68.0 °F 90% 29.75 in 8.0 mi South 6.9 mph - N/A   Overcast
1:51 AM 71.1 °F 68.0 °F 90% 29.76 in 10.0 mi SSW 6.9 mph - N/A   Overcast
2:51 AM 71.1 °F 68.0 °F 90% 29.77 in 9.0 mi South 5.8 mph - N/A   Overcast
3:51 AM 70.0 °F 68.0 °F 93% 29.76 in 6.0 mi SSE 3.5 mph - N/A   Overcast
4:51 AM 71.1 °F 69.1 °F 93% 29.78 in 7.0 mi South 4.6 mph - N/A   Overcast
5:51 AM 70.0 °F 69.1 °F 97% 29.80 in 1.5 mi South 4.6 mph - N/A   Overcast
6:00 AM 69.8 °F 69.8 °F 100% 29.80 in 1.5 mi South 5.8 mph - N/A   Overcast
6:35 AM 69.8 °F 69.8 °F 100% 29.82 in 1.5 mi South 5.8 mph - N/A   Overcast
6:49 AM 69.8 °F 68.0 °F 94% 29.82 in 5.0 mi SSW 6.9 mph - N/A   Overcast
6:51 AM 70.0 °F 68.0 °F 93% 29.82 in 5.0 mi SSW 5.8 mph - N/A   Overcast
7:51 AM 70.0 °F 68.0 °F 93% 29.85 in 2.0 mi SSE 6.9 mph - N/A   Overcast
8:00 AM 69.8 °F 68.0 °F 94% 29.85 in 2.0 mi South 6.9 mph - N/A   Overcast
8:36 AM 71.6 °F 68.0 °F 88% 29.86 in 2.0 mi South 5.8 mph - N/A   Overcast
8:51 AM 71.1 °F 69.1 °F 93% 29.86 in 2.0 mi SSW 4.6 mph - N/A   Overcast
8:59 AM 71.6 °F 69.8 °F 94% 29.86 in 7.0 mi South 4.6 mph - N/A   Overcast
9:51 AM 73.0 °F 69.1 °F 87% 29.86 in 7.0 mi South 4.6 mph - N/A   Overcast
10:51 AM 75.0 °F 70.0 °F 84% 29.87 in 7.0 mi SE 9.2 mph - N/A   Overcast
11:16 AM 75.2 °F 69.8 °F 83% 29.87 in 10.0 mi SSE 5.8 mph - N/A   Scattered Clouds
11:35 AM 75.2 °F 69.8 °F 83% 29.87 in 10.0 mi SSE 6.9 mph - N/A   Overcast
11:51 AM 75.9 °F 70.0 °F 82% 29.87 in 10.0 mi South 6.9 mph - N/A   Overcast
12:48 PM 78.8 °F 69.8 °F 74% 29.88 in 10.0 mi South 12.7 mph - N/A   Overcast
12:51 PM 77.0 °F 70.0 °F 79% 29.88 in 10.0 mi South 13.8 mph - N/A   Overcast
12:59 PM 77.0 °F 69.8 °F 78% 29.88 in 7.0 mi South 11.5 mph - N/A   Overcast
1:51 PM 78.1 °F 70.0 °F 76% 29.88 in 7.0 mi SSW 12.7 mph - N/A   Overcast
1:58 PM 78.8 °F 71.6 °F 78% 29.88 in 10.0 mi SSW 11.5 mph - N/A   Overcast
2:51 PM 78.1 °F 70.0 °F 76% 29.89 in 10.0 mi SSW 13.8 mph 20.7 mph N/A   Overcast
3:51 PM 77.0 °F 66.9 °F 71% 29.89 in 10.0 mi SSW 15.0 mph - N/A   Mostly Cloudy
4:14 PM 77.0 °F 66.2 °F 69% 29.89 in 10.0 mi SSW 12.7 mph - N/A   Mostly Cloudy
4:51 PM 77.0 °F 66.0 °F 69% 29.90 in 10.0 mi SSW 10.4 mph - N/A   Mostly Cloudy
5:51 PM 75.9 °F 66.9 °F 74% 29.91 in 10.0 mi SSW 11.5 mph - N/A   Mostly Cloudy
6:15 PM 75.2 °F 68.0 °F 78% 29.91 in 10.0 mi South 9.2 mph - N/A   Mostly Cloudy
6:51 PM 75.0 °F 69.1 °F 82% 29.92 in 10.0 mi SSW 13.8 mph - N/A   Mostly Cloudy
7:08 PM 73.4 °F 69.8 °F 88% 29.93 in 10.0 mi South 13.8 mph - N/A   Mostly Cloudy
7:23 PM 73.4 °F 69.8 °F 88% 29.93 in 10.0 mi SSW 11.5 mph 19.6 mph N/A   Overcast
7:51 PM 73.0 °F 69.1 °F 87% 29.93 in 6.0 mi South 11.5 mph - N/A   Mostly Cloudy
8:00 PM 73.4 °F 69.8 °F 88% 29.93 in 6.0 mi South 10.4 mph - 0.00 in Rain Light Rain
8:28 PM 71.6 °F 69.8 °F 94% 29.93 in 6.0 mi South 8.1 mph - 0.01 in   Mostly Cloudy
8:51 PM 72.0 °F 70.0 °F 93% 29.94 in 4.0 mi South 11.5 mph - 0.01 in   Mostly Cloudy
9:28 PM 71.6 °F 69.8 °F 94% 29.94 in 3.0 mi South 5.8 mph - 0.01 in Rain , Thunderstorm Light Thunderstorms and Rain
9:47 PM 71.6 °F 69.8 °F 94% 29.95 in 3.0 mi South 8.1 mph - 0.01 in   Light Drizzle
9:51 PM 71.1 °F 70.0 °F 96% 29.95 in 3.0 mi South 9.2 mph - 0.02 in Rain Light Rain
9:58 PM 71.6 °F 69.8 °F 94% 29.95 in 2.5 mi South 5.8 mph - 0.02 in Rain Light Rain
10:28 PM 71.6 °F 69.8 °F 94% 29.95 in 3.0 mi South 8.1 mph - 0.05 in Rain Rain
10:51 PM 71.1 °F 70.0 °F 96% 29.95 in 2.5 mi SSW 8.1 mph - 0.14 in Rain Heavy Rain
11:26 PM 71.6 °F 69.8 °F 94% 29.95 in 3.0 mi SSW 8.1 mph - 0.01 in   Light Drizzle
11:51 PM 71.1 °F 69.1 °F 93% 29.96 in 3.0 mi SSW 10.4 mph - 0.01 in   Light Drizzle